Погода в Фофанцево

Россия / Вологодская область     59°19′45″N   39°59′59″E
темп.,
°C
ветер,
м/с
пор.,
м/с
влажн.,
%
обл.,
%
осадки,
мм/ч
давл.,
гПа
погр.,
м
28 июня, вт
вт2800:00+11св367596 0.0 1022107
03:00+9св3974100 0.0 1024245
06:00+10св48700 0.0 1025360
09:00+14ссв46560 0.0 10251103
12:00+16ссв46453 0.0 10251527
15:00+18с45415 0.0 10251717
18:00+18ссв35515 0.0 10241060
21:00+13св22675 0.0 102518
29 июня, ср
ср2900:00+9св22725 0.0 102612
03:00+7ссв11725 0.0 102710
06:00+11ссв22690 0.0 1026116
09:00+16с24520 0.0 1026722
12:00+19ссз23420 0.0 10241451
15:00+20сз344187 0.0 10231510
18:00+19зсз355890 0.0 1021261
21:00+14сз347396 0.0 102144
30 июня, чт
чт3000:00+12ссз336570 0.0 102130
03:00+10сз3569100 0.0 102180
06:00+13сз38755 0.0 1020226
09:00+18ссз5754100 0.0 1020648
12:00+21ссз574631 0.0 10191239
15:00+23с695089 0.0 10191916
18:00+23ссв375651 0.0 1018718
21:00+17св11735 0.0 101911
1 июля, пт
пт100:00+13в11835 0.0 102011
03:00+11вюв11795 0.0 102110
06:00+14в11704 0.0 102162
09:00+20ссз11525 0.0 1021393
12:00+22сз234921 0.0 1021927
15:00+25зсз24505 0.0 10191052
18:00+25юз235931 0.0 1018434
21:00+21з337666 0.0 101742
2 июля, сб
сб200:00+17зсз367217 0.0 101780
03:00+14зсз36745 0.0 101783
06:00+17сз36800 0.0 1017166
09:00+22ссз576825 0.0 1016743
12:00+23ссз57560 0.0 10161269
15:00+25ссз575017 0.0 10151977
18:00+23св476179 0.0 1015462
21:00+16всв36790 0.0 1017129